Dewpoint
61 62 62 63 63 63 63 63 63 64 64 64 64 64 64 64 64 64 63 63 63 63 63 63 63 63 62 62 62 61 59 55 54 53 54 56 61 63 63 63 63 62 62 39 37 37 38 36 36 42 39 34 38 34 39 39 41 36 28 28 24 29 26 30 23 22 26 21 23 23 24 23 21 23 24 26 32 36 43 48 48 58 58 58 57 58 59 60
57 61 63 63 63 63 64 63 63 64 64 64 64 64 64 64 64 64 63 63 63 63 63 63 63 63 62 62 61 60 57 56 54 54 53 60 62 63 62 63 64 62 56 35 37 38 38 37 37 38 37 35 46 29 36 35 37 33 31 28 24 29 29 31 25 24 22 21 22 23 24 22 22 23 24 23 28 35 37 43 54 56 58 58 59 59 59 60
60 59 62 62 62 63 63 63 63 63 64 64 64 64 64 64 63 63 63 63 63 63 63 63 63 63 62 62 61 60 55 53 51 51 54 63 61 62 62 64 64 63 37 34 37 40 44 44 40 34 36 38 35 31 33 29 33 33 27 25 29 34 30 25 22 23 22 22 22 23 23 23 23 23 24 23 26 31 32 47 50 55 56 57 58 59 59 59
60 61 62 61 62 62 63 63 63 63 63 64 64 64 64 63 63 63 63 63 62 63 63 63 62 62 61 60 60 59 53 51 50 50 51 64 61 61 62 61 63 50 37 35 37 38 43 45 44 37 39 42 41 35 29 31 28 30 26 26 28 30 21 20 22 21 21 22 22 23 22 22 24 22 22 21 24 25 27 44 48 53 57 58 58 59 59 59
59 60 61 61 62 62 62 63 63 63 63 64 64 63 63 63 63 63 63 63 63 62 62 62 62 62 61 60 60 55 53 51 50 50 57 65 64 62 63 63 63 44 38 40 41 42 43 48 43 38 44 43 43 40 37 31 32 31 22 24 28 25 20 20 22 23 24 24 23 22 21 21 23 22 21 22 21 21 22 29 43 56 59 58 58 58 59 58
59 60 61 61 61 61 61 62 63 63 63 62 63 63 63 63 63 63 63 63 62 62 62 62 62 61 61 60 57 55 52 42 48 52 63 62 62 64 64 64 62 40 38 39 41 43 41 42 44 42 44 49 41 43 40 24 31 25 26 23 23 22 20 21 22 22 22 23 22 21 21 22 21 22 21 21 20 20 22 27 35 58 59 59 59 59 58 58
57 60 61 61 60 61 62 63 63 63 63 63 62 63 63 63 63 63 63 62 62 62 62 62 62 61 60 57 56 54 50 50 52 58 62 63 63 63 64 63 61 39 37 39 40 41 45 44 47 42 47 46 43 43 31 22 27 27 24 22 22 23 21 23 21 22 21 22 22 22 22 21 20 19 20 20 19 19 20 22 39 58 59 59 58 58 58 58
56 58 60 60 60 61 61 62 62 63 63 63 62 63 63 63 63 63 62 62 62 61 61 61 61 61 58 54 52 50 49 48 49 55 63 64 63 62 63 58 51 42 37 38 39 39 39 39 39 42 49 44 41 30 26 24 21 19 23 24 23 22 23 23 21 21 21 22 21 22 20 20 20 19 18 17 18 20 32 33 44 59 59 59 58 58 58 58
57 57 59 60 60 60 61 61 62 62 62 63 63 62 63 63 63 62 62 62 62 61 61 61 61 59 57 53 50 49 47 51 48 57 62 61 59 61 56 51 49 34 34 37 39 38 39 41 39 43 42 44 43 28 24 21 20 22 22 24 22 22 22 22 21 21 21 22 21 20 19 20 20 21 19 18 19 24 43 34 52 58 58 58 58 58 58 58
57 57 58 60 60 60 61 61 62 62 62 62 62 62 63 63 62 62 62 62 62 61 61 61 60 57 54 52 52 47 52 56 61 62 61 59 59 57 52 50 42 35 34 32 38 38 39 40 39 39 38 43 45 36 26 19 19 20 21 22 20 21 22 23 21 20 22 24 21 19 19 19 21 19 14 19 19 36 45 44 54 57 57 57 57 58 58 58
57 57 57 59 60 60 60 61 62 62 62 62 62 62 62 62 62 62 62 62 62 61 61 60 58 55 52 52 49 46 52 57 57 59 58 58 58 54 50 46 38 35 35 32 38 39 38 37 35 34 43 49 45 36 24 27 25 19 19 21 21 21 22 22 21 21 22 19 20 19 19 22 21 20 15 17 19 42 45 47 52 55 56 57 57 57 57 58
57 57 57 58 59 60 60 60 61 61 62 61 62 62 62 62 62 62 62 62 62 61 60 59 57 53 52 51 50 48 57 55 57 58 57 57 56 54 49 43 36 38 33 29 36 40 38 38 35 37 43 41 39 36 33 23 20 18 21 18 19 19 19 20 19 20 22 19 21 21 18 17 21 16 17 17 24 39 46 47 48 51 54 55 55 56 56 57
56 56 57 57 58 60 60 61 61 61 61 61 61 61 62 62 62 62 61 61 61 60 59 59 56 54 51 49 49 50 51 45 58 56 54 53 50 46 47 44 39 37 34 31 31 35 38 35 34 34 36 33 33 36 29 23 18 22 21 18 18 18 17 18 22 22 20 20 24 20 16 17 16 18 19 21 29 34 43 46 47 47 49 52 53 54 55 56
54 56 56 56 58 59 60 61 61 61 61 61 61 61 61 62 61 61 61 61 61 60 59 57 54 52 50 49 43 46 50 49 56 54 53 51 47 45 45 46 42 40 44 35 36 36 34 33 34 34 33 37 31 26 22 19 22 18 19 19 19 17 17 19 21 21 19 23 21 16 16 15 15 16 19 24 28 32 37 41 44 45 47 49 51 52 54 55
55 55 56 56 57 59 59 60 61 61 61 61 61 61 61 61 61 61 61 60 59 58 56 56 53 52 49 49 42 50 58 54 53 52 52 48 45 42 42 43 40 40 38 40 38 37 36 39 37 38 39 34 32 25 23 19 17 18 16 17 20 17 20 24 23 20 16 19 21 16 19 14 14 14 15 21 23 26 29 34 38 39 40 43 47 50 51 53
55 55 55 57 58 59 59 59 60 61 61 61 60 60 60 60 60 61 60 58 58 56 54 50 51 53 50 47 47 54 52 51 51 53 54 48 44 41 42 40 41 35 32 30 36 35 36 37 37 34 30 28 33 28 23 21 19 23 18 25 20 19 20 16 19 21 21 19 20 15 15 15 12 13 16 21 21 21 21 24 31 33 34 34 38 43 46 48
54 55 55 56 58 58 59 59 59 61 61 60 60 60 60 60 60 60 59 57 55 56 52 49 51 53 47 49 43 43 41 47 51 53 51 45 44 40 39 36 33 32 31 31 34 34 35 34 31 30 28 29 38 27 23 18 17 19 23 16 28 17 17 16 19 21 26 17 15 17 15 14 12 14 16 22 21 19 18 18 22 28 30 30 31 35 40 44
54 54 55 56 57 58 59 59 59 60 60 59 59 59 59 60 60 58 56 53 52 53 52 52 52 50 48 40 39 40 42 45 49 52 52 46 41 38 36 34 35 29 30 26 32 30 31 25 27 26 26 28 29 28 23 18 17 18 16 16 15 15 17 16 17 16 19 20 14 15 15 14 14 15 16 19 21 19 18 18 18 22 27 28 27 29 35 40
55 54 54 56 57 58 58 59 59 59 59 59 60 60 60 58 56 53 51 49 48 47 45 45 47 42 42 46 40 38 41 44 50 52 51 46 43 38 35 34 32 28 29 25 26 25 29 30 27 24 24 25 26 24 24 24 21 20 20 16 19 16 14 15 18 20 18 17 16 15 14 14 14 14 15 15 21 18 17 17 17 17 21 25 27 29 32 38
55 54 54 56 57 58 58 58 58 59 59 59 58 55 52 49 48 46 50 49 46 44 43 45 47 44 41 43 38 43 46 46 46 46 49 47 37 34 31 31 36 31 27 28 31 23 29 23 20 22 23 24 25 22 18 16 20 18 25 23 13 13 15 18 20 22 22 18 16 16 15 14 14 14 14 14 19 21 19 18 17 17 17 17 22 27 31 36
55 55 55 55 57 58 58 59 58 59 59 57 55 52 46 45 42 40 45 47 45 42 45 46 47 43 37 42 43 42 41 40 39 44 46 44 35 30 28 30 28 27 28 29 25 29 22 22 21 21 22 22 22 20 16 15 16 15 19 23 15 23 11 15 20 22 22 17 17 17 18 18 16 15 15 15 18 18 18 18 18 17 17 17 19 23 29 32
53 55 55 55 57 58 58 58 59 58 58 56 54 51 49 47 48 47 47 42 43 43 44 45 46 43 50 50 46 45 44 36 36 41 46 38 32 28 28 26 25 24 27 28 25 23 20 21 21 20 18 19 19 19 18 15 15 18 15 18 21 17 21 20 22 22 22 19 16 20 16 16 17 17 17 16 15 16 17 18 17 17 18 17 18 20 24 29
53 54 55 55 56 57 58 58 58 58 56 54 52 51 48 47 48 48 45 43 42 44 43 44 43 41 45 47 48 42 38 36 33 37 38 38 32 30 27 25 24 24 25 23 24 23 21 20 21 19 17 17 17 17 18 19 20 19 19 18 15 22 18 14 16 21 21 16 16 20 16 17 17 17 18 18 15 15 18 19 20 20 17 16 16 18 21 24
53 54 54 55 56 57 58 57 58 56 54 53 52 50 48 48 47 45 43 41 39 43 40 44 45 44 44 40 48 44 39 38 35 36 39 35 30 34 27 25 22 22 22 22 23 22 21 20 20 19 17 16 15 16 17 19 19 23 23 21 21 24 18 14 14 20 20 19 22 15 17 13 14 12 12 12 18 18 18 21 21 23 26 23 28 27 25 21
53 53 54 55 56 57 57 58 55 54 54 53 50 51 48 47 46 42 39 38 38 35 44 40 43 43 46 46 45 43 43 44 36 36 39 34 30 26 24 25 23 20 21 22 21 23 22 19 21 19 20 16 18 15 19 22 16 17 25 21 18 25 19 25 23 16 17 15 21 19 12 17 20 20 14 11 11 11 16 18 18 19 21 23 22 22 24 30
54 54 54 55 56 57 58 53 53 55 53 51 50 52 49 46 41 40 37 34 32 35 40 33 43 38 45 41 42 43 42 38 38 41 40 38 37 26 25 22 21 19 20 21 19 23 21 23 21 21 21 23 21 17 22 20 16 16 14 24 20 23 26 26 24 21 10 12 19 17 12 13 15 14 15 16 14 10 10 17 18 18 19 20 22 23 23 25
54 54 54 55 57 57 53 50 54 54 49 50 51 53 51 44 45 42 32 28 27 35 32 38 39 39 42 41 39 36 34 32 41 44 41 49 31 35 22 21 20 21 21 22 21 18 22 21 21 25 22 23 21 15 22 18 17 15 28 31 28 27 26 25 23 22 21 24 23 24 15 8 10 9 14 17 16 14 13 13 13 14 18 19 21 22 24 25
54 54 54 56 57 56 54 54 52 51 50 51 52 52 51 46 43 40 33 24 23 35 31 34 39 45 45 43 40 36 36 35 34 38 44 44 32 32 23 21 19 20 20 22 17 29 21 24 23 24 24 23 18 18 25 23 19 21 30 32 26 23 27 27 23 22 22 16 17 20 22 9 14 15 19 16 11 10 11 11 14 14 15 17 19 22 24 25
54 54 54 56 57 56 56 54 52 50 52 52 53 52 51 48 47 38 29 23 31 28 37 31 41 41 43 45 41 42 40 34 35 35 39 43 37 27 22 22 20 20 26 20 17 26 26 25 23 21 22 20 26 19 24 24 18 27 34 36 35 33 31 28 23 22 20 12 14 17 19 9 15 20 17 18 10 11 12 10 11 14 16 17 19 21 24 28
54 54 55 56 56 55 55 55 52 53 51 51 50 49 49 49 42 29 24 20 32 26 30 32 35 35 40 38 37 36 39 32 33 38 35 40 36 29 24 24 22 23 25 30 28 32 30 32 34 27 22 23 22 25 31 23 21 35 32 28 27 26 26 25 26 23 18 12 18 21 22 13 10 17 15 12 14 8 7 7 8 11 18 19 21 23 26 28
54 54 55 56 53 54 54 51 51 52 50 49 49 48 47 44 31 26 22 25 31 30 30 31 30 36 37 34 31 34 37 37 34 33 31 28 31 26 24 22 27 27 26 26 25 30 29 30 29 30 33 31 29 30 33 35 34 29 26 23 22 21 24 24 25 25 13 14 20 22 21 15 10 12 16 16 14 14 11 10 9 9 11 20 28 28 29 32
53 54 55 55 54 54 51 49 52 50 49 48 47 46 44 31 32 25 22 29 25 27 28 28 31 33 33 31 30 30 31 35 34 31 31 29 28 22 22 20 24 22 21 22 20 28 25 27 32 30 34 29 30 27 27 34 31 26 21 18 19 18 20 11 14 12 12 13 15 17 21 16 16 13 10 11 12 15 13 11 11 13 15 26 33 35 36 35
54 54 55 54 54 52 52 52 51 48 47 46 46 45 37 29 22 26 25 26 25 29 27 30 30 30 30 28 27 31 35 31 33 30 31 33 29 25 26 23 26 22 18 23 23 22 23 29 29 29 30 32 30 21 23 24 26 21 17 20 17 12 7 7 12 11 11 15 18 17 19 14 16 16 20 17 14 13 14 15 16 18 22 27 33 34 34 34
54 55 55 54 53 52 53 52 50 48 46 45 44 40 35 28 25 31 26 25 27 29 28 29 29 28 28 26 27 29 27 31 32 30 29 28 27 24 23 24 24 24 25 25 20 21 18 18 24 27 24 31 29 25 25 25 25 19 25 20 21 20 13 5 9 8 12 13 15 22 11 15 8 10 18 18 18 18 18 19 18 22 27 31 33 33 34 34
54 55 54 53 53 54 51 50 48 48 46 45 41 35 28 27 29 24 25 25 27 27 27 30 28 26 26 27 28 28 30 28 29 27 27 27 24 24 22 20 25 26 25 20 23 20 19 22 29 34 32 30 29 32 34 29 26 25 29 25 18 17 23 12 19 15 12 9 9 12 13 18 11 15 18 19 19 19 20 24 28 29 31 33 33 34 35 36
54 55 53 52 52 52 50 51 48 48 46 44 37 32 29 30 27 27 25 26 26 27 27 28 28 24 25 25 30 29 32 29 30 27 26 26 26 25 26 24 23 25 22 18 22 17 19 19 30 33 31 28 30 32 31 28 18 23 21 20 25 27 22 17 17 19 13 12 12 16 14 16 18 11 11 15 16 13 15 18 22 26 30 31 33 34 35 37
53 53 51 51 51 51 50 49 50 46 45 41 34 30 33 30 33 28 30 25 26 28 28 25 26 24 24 23 26 27 29 30 28 26 23 26 22 24 23 23 26 25 23 22 21 25 18 21 28 27 26 30 31 32 34 30 29 24 18 21 29 31 29 19 10 14 7 8 13 12 11 12 8 13 22 13 13 12 14 14 17 23 27 29 31 33 34 36
51 50 49 49 51 51 51 50 47 46 43 38 31 33 34 29 31 31 28 27 27 28 27 26 26 27 24 24 25 25 29 25 25 24 23 23 21 25 24 22 24 24 22 24 19 21 27 21 26 28 30 32 33 32 27 28 31 25 24 31 16 15 11 17 17 7 4 2 5 10 14 13 13 13 17 11 11 11 10 13 16 18 22 27 29 30 32 35
49 49 45 49 51 51 50 49 46 44 38 34 30 31 31 30 31 27 25 26 28 28 26 26 25 26 26 24 25 25 27 22 25 23 21 23 18 24 22 22 24 25 22 22 17 24 24 20 23 29 28 31 28 28 24 23 28 29 27 23 25 20 20 14 15 17 15 10 3 12 10 11 18 14 15 9 9 13 9 10 13 16 19 22 28 29 31 35
47 45 42 51 51 51 51 47 45 42 36 31 30 31 30 27 30 28 26 27 28 26 26 26 27 24 26 25 25 24 27 23 24 23 21 23 20 24 22 22 23 25 22 23 22 28 17 27 20 26 29 28 23 25 25 23 23 20 22 20 20 20 22 22 18 17 11 7 7 5 5 15 16 17 13 10 7 7 6 9 18 19 19 21 26 29 33 37
46 42 43 51 51 51 50 46 41 37 34 33 33 29 27 27 29 26 27 30 29 30 25 26 25 23 25 24 24 26 25 25 24 23 22 23 19 20 25 21 25 23 26 24 26 24 19 18 21 25 24 22 24 29 29 26 23 21 21 21 19 18 14 11 14 19 14 5 6 2 7 16 20 20 13 9 8 9 13 16 17 19 20 22 26 30 36 38
43 38 41 51 51 50 47 39 38 39 34 32 30 29 26 34 27 26 28 29 29 27 29 27 26 25 25 24 24 26 25 24 24 23 24 23 21 23 25 24 23 24 23 20 21 27 26 26 27 24 26 25 27 32 34 34 31 29 23 23 24 19 18 14 9 15 12 13 16 14 4 10 17 21 16 11 10 14 19 21 19 20 22 22 25 32 37 39
43 40 48 50 52 48 43 37 40 37 34 33 33 31 34 28 26 27 27 28 27 29 25 25 25 24 26 25 26 26 25 24 25 23 24 25 23 25 28 23 24 26 24 23 27 27 33 24 23 24 26 29 29 31 32 33 29 27 26 26 23 20 22 20 18 20 16 12 8 8 6 12 20 26 25 22 23 25 26 25 23 23 25 26 25 33 38 39
42 42 44 50 51 47 40 33 33 36 33 32 30 30 34 28 26 26 26 27 27 26 24 24 25 24 25 27 25 24 26 22 27 25 24 27 23 28 28 27 23 23 22 22 19 29 16 18 23 19 18 21 23 25 25 28 28 25 24 26 26 27 23 24 21 19 11 18 16 11 8 10 19 26 27 25 21 18 18 17 24 23 28 31 27 33 38 38
43 44 45 46 49 46 38 39 37 35 33 30 29 30 31 29 28 26 26 25 30 24 24 22 24 26 25 27 26 26 26 23 24 28 27 27 25 34 30 29 26 22 22 28 30 29 22 25 22 18 16 15 14 17 19 23 26 26 26 26 27 25 23 19 13 13 10 17 16 11 9 15 13 19 18 18 19 17 17 19 21 24 27 32 32 37 38 38
40 33 40 42 45 44 42 43 38 35 32 30 28 29 29 28 30 32 28 28 33 27 24 27 28 26 27 26 25 25 24 28 25 26 25 26 28 31 33 30 27 25 29 32 32 25 19 25 22 18 17 14 16 20 27 28 26 23 25 26 26 26 25 23 24 18 13 16 15 15 13 13 10 13 17 15 19 18 18 20 18 21 22 29 35 37 37 38
41 35 36 32 41 41 39 41 37 34 31 30 27 30 28 28 29 29 31 26 33 26 29 25 28 25 27 26 25 25 25 26 28 27 25 26 31 31 32 31 29 30 35 32 30 25 23 22 24 21 20 18 26 25 27 27 24 23 24 25 26 26 26 23 21 17 21 16 13 17 20 16 16 16 16 17 18 19 20 20 21 22 23 29 36 36 37 36
33 37 40 40 35 32 36 36 36 33 32 29 27 30 28 28 28 25 30 33 32 28 25 29 26 27 27 25 25 24 24 25 26 24 29 29 29 28 28 30 27 31 31 26 29 23 22 20 23 22 21 22 26 26 28 26 25 25 25 25 26 26 26 24 23 23 21 17 12 18 19 18 17 15 16 16 17 15 14 17 18 19 20 30 35 36 37 37
36 36 37 39 34 38 38 37 36 33 31 29 29 30 29 29 27 27 29 32 30 26 26 24 24 27 27 27 25 24 24 24 23 25 27 29 28 26 24 25 26 29 27 25 25 25 19 17 23 23 21 21 22 26 28 25 24 26 26 26 26 26 25 24 23 24 22 19 20 21 20 18 18 18 17 18 19 18 17 21 24 22 22 26 35 35 36 37
36 37 34 36 35 37 38 37 35 32 29 30 28 29 30 28 27 31 31 30 25 26 30 23 24 28 27 27 25 24 25 24 24 25 28 28 24 25 26 26 26 25 25 24 24 21 18 18 26 21 17 18 22 25 27 25 24 23 25 26 26 26 25 25 23 23 24 21 20 21 21 20 20 19 20 22 21 22 22 19 17 18 20 26 33 35 36 36
36 36 38 36 34 36 37 36 33 30 28 28 28 29 30 29 28 31 31 34 27 27 28 24 27 28 28 27 26 25 27 26 28 28 30 29 26 28 25 23 27 27 25 24 22 25 21 15 20 19 18 14 19 25 25 25 23 22 23 24 25 25 24 25 24 25 23 21 22 22 21 19 23 21 22 22 24 22 21 21 21 21 20 28 32 34 35 36
38 38 40 39 34 37 35 35 32 30 28 29 29 29 29 29 31 32 29 32 36 33 30 29 29 27 27 27 25 26 28 28 29 31 31 28 28 28 26 28 27 25 26 25 26 26 23 22 19 17 17 14 15 25 24 22 18 18 21 22 24 25 25 26 26 27 24 23 22 21 18 19 23 24 21 23 23 23 22 22 23 23 23 26 29 32 34 35